Change the Weather History Date:

Sunday, April 6, 2014

  Actual Average (KSBY) Record (KSBY)
Temperature  
Mean Temperature 43 °F 51 °F  
Max Temperature 51 °F 62 °F 88 °F (1929)
Min Temperature 33 °F 41 °F 26 °F (2002)
Degree Days  
Heating Degree Days 22 14  
Month to date heating degree days 89  
Since 1 July heating degree days 4024  
Cooling Degree Days 0 0  
Month to date cooling degree days 0  
Year to date cooling degree days 2  
Moisture  
Dew Point 28 °F    
Average Humidity 58    
Maximum Humidity 92    
Minimum Humidity 29    
Precipitation  
Precipitation 0.00 in 0.12 in 2.12 in (1924)
Month to date precipitation 0.80  
Year to date precipitation 12.18  
Snow  
Snow 0.00 in 0.00 in 0.00 in ()
Month to date snowfall 0.1  
Since 1 July snowfall 9.2  
Snow Depth -    
Sea Level Pressure  
Sea Level Pressure 30.22 in    
Wind  
Wind Speed 8 mph (NE)    
Max Wind Speed 13 mph    
Max Gust Speed -    
Visibility 10 miles    
Events      
T = Trace of Precipitation, MM = Missing Value Source: NWS Daily Summary

Daily Weather History Graph

Daily Weather History Graph

Search for Another Location

Airport or City:

Trip Planner

Search our weather history database for the weather conditions in past years. The results will help you decide how hot, cold, wet, or windy it might be!

Date:

Astronomy

Apr. 06, 2014 Rise Set
Actual Time 6:37 AM EDT 7:28 PM EDT
Civil Twilight 6:11 AM EDT 7:55 PM EDT
Nautical Twilight 5:39 AM EDT 8:27 PM EDT
Astronomical Twilight 5:06 AM EDT 9:00 PM EDT
Moon 11:39 AM EDT (4/6) 1:19 AM EDT (4/6)
Length of Visible Light 13h 44m
Length of Day
12h 50m
Waxing Crescent, 43% of the Moon is Illuminated
Apr 6
Waxing Crescent
Apr 7
First Quarter
Apr 15
Full
Apr 22
Last Quarter
Apr 29
New

Hourly Weather History & Observations

Time (EDT) Temp. Windchill Dew Point Humidity Pressure Visibility Wind Dir Wind Speed Gust Speed Precip Events Conditions
12:53 AM 44.1 °F 39.0 °F 28.9 °F 55% 30.14 in 10.0 mi North 9.2 mph - N/A   Clear
1:53 AM 42.1 °F 37.1 °F 28.0 °F 58% 30.16 in 10.0 mi NNW 8.1 mph - N/A   Clear
2:53 AM 41.0 °F 36.4 °F 27.0 °F 57% 30.16 in 10.0 mi North 6.9 mph - N/A   Clear
3:53 AM 39.9 °F 34.5 °F 26.1 °F 58% 30.16 in 10.0 mi North 8.1 mph - N/A   Clear
4:53 AM 37.9 °F 32.7 °F 26.1 °F 62% 30.17 in 10.0 mi NNW 6.9 mph - N/A   Clear
5:53 AM 37.0 °F 32.4 °F 25.0 °F 62% 30.19 in 10.0 mi NNW 5.8 mph - N/A   Clear
6:53 AM 36.0 °F 32.1 °F 26.1 °F 67% 30.21 in 10.0 mi North 4.6 mph - N/A   Clear
7:53 AM 42.1 °F 37.7 °F 27.0 °F 55% 30.24 in 10.0 mi North 6.9 mph - N/A   Clear
8:53 AM 46.0 °F 41.0 °F 28.0 °F 50% 30.24 in 10.0 mi North 10.4 mph - N/A   Clear
9:53 AM 46.0 °F 40.6 °F 27.0 °F 47% 30.25 in 10.0 mi NE 11.5 mph - N/A   Clear
10:53 AM 48.0 °F - 23.0 °F 37% 30.25 in 10.0 mi NNE 10.4 mph - N/A   Clear
11:53 AM 50.0 °F - 19.0 °F 29% 30.25 in 10.0 mi ENE 6.9 mph - N/A   Clear
12:53 PM 50.0 °F - 19.0 °F 29% 30.26 in 10.0 mi East 9.2 mph - N/A   Clear
1:53 PM 48.0 °F - 25.0 °F 41% 30.23 in 10.0 mi East 12.7 mph - N/A   Clear
2:53 PM 46.0 °F 41.0 °F 30.9 °F 56% 30.23 in 10.0 mi SE 10.4 mph - N/A   Clear
3:53 PM 45.0 °F 40.6 °F 28.9 °F 53% 30.22 in 10.0 mi SE 8.1 mph - N/A   Clear
4:53 PM 45.0 °F 40.6 °F 28.9 °F 53% 30.21 in 10.0 mi SE 8.1 mph - N/A   Clear
5:53 PM 44.1 °F 40.1 °F 30.0 °F 58% 30.21 in 10.0 mi South 6.9 mph - N/A   Clear
6:53 PM 43.0 °F 40.3 °F 30.9 °F 62% 30.22 in 10.0 mi Variable 4.6 mph - N/A   Clear
7:53 PM 41.0 °F 37.1 °F 32.0 °F 70% 30.24 in 10.0 mi SSW 5.8 mph - N/A   Clear
8:53 PM 41.0 °F 39.0 °F 33.1 °F 73% 30.24 in 10.0 mi SW 3.5 mph - N/A   Clear
9:53 PM 37.0 °F - 32.0 °F 82% 30.25 in 10.0 mi Calm Calm - N/A   Clear
10:53 PM 36.0 °F - 33.1 °F 89% 30.23 in 10.0 mi Calm Calm - N/A   Clear
11:53 PM 33.1 °F - 30.9 °F 92% 30.22 in 10.0 mi Calm Calm - N/A   Clear